483  
SXUS55 KTWC 141915  
OSOTWC  
 
WEATHER ROUNDUP FOR SOUTHEAST ARIZONA  
NATIONAL WEATHER SERVICE TUCSON AZ  
1215 PM MST TUE AUG 14 2018  
 
AZZ504>506-514-142015-  
LOCATION SKY/WX TMP DP RH WIND PRES REMARKS  
TUCSON MOSUNNY 92 63 38 W3 29.97F  
DAVIS-MONTHAN SUNNY 93 64 37 N7 29.96F  
CHILDRENS PARK N/A N/A N/A 44 NW4 PIMA CO DEQ  
ALVERNON/22ND N/A 88 N/A N/A NW5 PIMA CO DEQ  
CHERRY/GLENN N/A N/A N/A N/A N/A PIMA CO DEQ  
TANGERINE N/A 90 N/A N/A NW3 PIMA CO DEQ  
CONTL RANCH N/A 90 62 40 NW4 PIMA CO DEQ  
GRANT/1ST N/A 89 64 44 NW5 PIMA CO DEQ  
CRAYCROFT/22ND N/A 89 64 44 NW7 PIMA CO DEQ  
GOLFLINKS/KOLB N/A N/A N/A N/A N/A PIMA CO DEQ  
AJO/12TH N/A 90 66 45 W5 PIMA CO DEQ  
FAIRGROUNDS N/A 85 N/A N/A W5 PIMA CO DEQ  
SAGUARO N/A 94 65 39 SE2G28 *SABINO CYN  
SAN CARLOS N/A 94 62 35 W6G13 *SAN CARLOS  
GREEN VALLEY N/A 88 65 46 NE2 PIMA CO DEQ  
HORSE CAMP CYN N/A 82 63 53 W10G17 *ARAVAIPA CYN  
RINCON MTNS N/A 66 59 79 SW2 *NR MANNING CAMP  

 
 
AZZ509>511-142015-  
LOCATION SKY/WX TMP DP RH WIND PRES REMARKS  
SAFFORD SUNNY 94 59 31 W21G31 29.93F  
STRAY HORSE N/A 78 49 36 SW2 *  
TRAIL CABIN N/A 82 56 41 W3 *N OF GRANVILLE  
BLACK HILLS NOT AVBL  
DRY LAKE N/A 80 57 45 W3 *NATANES MTNS  
NOON CREEK N/A 88 61 40 E4G11 *PINALENO MTNS  
COLUMBINE N/A 69 47 46 N3 *PINALENO MTNS  
GUTHRIE N/A 79 56 46 SW9G17 *SW OF GUTHRIE  

 
 
AZZ502-503-513-142015-  
LOCATION SKY/WX TMP DP RH WIND PRES REMARKS  
NOGALES SUNNY 87 65 47 W7 30.05F  
SELLS N/A 93 61 35 W4 *  
SASABE N/A 89 66 46 N4 *ALTAR VLY  
HOPKINS N/A 68 61 79 SE3G10 *SANTA RITA MTNS  
CARR CYN N/A 84 60 44 NE3 *W OF HEREFORD  

 
 
AZZ507-508-512-142015-  
LOCATION SKY/WX TMP DP RH WIND PRES REMARKS  
SIERRA VISTA PTSUNNY 84 60 44 N5 30.10  
DOUGLAS MOSUNNY 87 61 41 NW10 30.05F  
EMPIRE MTNS NOT AVBL  
MULESHOE RANCH N/A 83 62 50 W10G17 *PRESERVE  
HEADQUARTERS N/A 83 59 44 W3G10 *CHIRICAHUA MTNS  

 
   
............................NOTES..........................
 
 
THIS IS AN AUTOMATED COLLECTIVE WITH MINIMAL QUALITY CONTROL.  
PIMA CO DEQ SITES HAVE NONSTANDARD WIND SENSOR HEIGHTS.  
PIMA CO DEQ SITES DO NOT REPORT WIND GUSTS.  
* INDICATES WIND SENSORS LOCATED AT 20 FEET INSTEAD OF 33 FEET.   
.............................KEY...........................
 
 
SKY/WX - SKY CONDITION/WEATHER  
TMP - TEMPERATURE IN FAHRENHEIT  
DP - DEWPOINT IN FAHRENHEIT  
RH - RELATIVE HUMIDITY IN PERCENT  
WIND - DIRECTION AND SPEED IN MILES PER HOUR (MPH)  
VRB - VARIABLE WIND DIRECTION  
PRES - MEAN SEA LEVEL PRESSURE IN INCHES OF MERCURY  
F - FALLING PRESSURE R - RISING PRESSURE  
S - STEADY PRESSURE  
VSB - VISIBILITY IN MILES  
HX - HEAT INDEX IN FAHRENHEIT  
WCI - WIND CHILL INDEX IN FAHRENHEIT  
N/A - NOT AVAILABLE  
AFB - AIR FORCE BASE  
DAVIS-MONTHAN IS DAVIS-MONTHAN AIR FORCE BASE  
CYN - CANYON  
MTNS - MOUNTAINS  
NCA - NATIONAL CONSERVATION AREA  
NR - NEAR  
VLY - VALLEY  
CONTL - CONTINENTAL  
PIMA CO DEQ - PIMA COUNTY DEPT OF ENVIRONMENTAL QUALITY  
 
CLICK HERE TO GO TO PREVIOUS BULLETINS.

The Nexlab AZ Page Main Text Page